Regional Weather Roundup
Issued by NWS

Home | Current Version | Previous Version | Graphics & Text | Print | Product List | Glossary On
Versions: 1 2 3 4 5 6 7 8 9 10 11 12 13 14 15 16 17 18 19 20 21 22 23 24 25 26 27 28 29 30 31 32 33 34 35 36 37 38 39 40 41 42 43 44 45 46 47 48 49 50
000
ASUS43 KTOP 230108
RWRKS

WEATHER ROUNDUP FOR KANSAS
NATIONAL WEATHER SERVICE GOODLAND KS
800 PM CDT MON SEP 22 2014

NOTE:  "FAIR" INDICATES FEW OR NO CLOUDS BELOW 12,000 FEET WITH NO
SIGNIFICANT WEATHER AND/OR OBSTRUCTIONS TO VISIBILITY.

KSZ001>006-013>018-027>032-041>047-230200-
NORTHWEST KANSAS

CITY           SKY/WX    TMP DP  RH WIND       PRES   REMARKS
GOODLAND       MOCLDY    68  54  60 S20       30.08F
HILL CITY      CLOUDY    71  46  40 SE9       30.12S
RUSSELL        MOCLDY    67  48  50 SE12      30.14F
$$

KSZ061>065-074>080-084>089-230200-
SOUTHWEST KANSAS

CITY           SKY/WX    TMP DP  RH WIND       PRES   REMARKS
DODGE CITY     PTCLDY    71  44  37 SE10      30.17S
ELKHART          N/A     73  55  53 S15         N/A
GARDEN CITY    CLOUDY    73  48  41 SE15      30.13F
GREAT BEND     MOCLDY    70  45  40 SE10      30.16R
LIBERAL        CLOUDY    75  48  38 SE13      30.16F
PRATT          MOCLDY    72  39  30 S8        30.19S
$$

KSZ066>073-081>083-090>101-230200-
SOUTHEAST KANSAS

CITY           SKY/WX    TMP DP  RH WIND       PRES   REMARKS
CHANUTE        PTCLDY    65  55  70 E6        30.21S
COFFEYVILLE    CLEAR     65  56  72 E3        30.20S
HUTCHINSON     PTCLDY    68  48  48 SE8       30.17F
MEDICINE LODGE   N/A     74  42  31 SE6       30.17S
NEWTON         MOCLDY    66  45  45 SE7       30.21S
PARSONS        CLEAR     61  56  83 CALM      30.22S
WICHITA INTL   PTCLDY    70  47  43 S9        30.19R
WICHITA JABRA  PTCLDY    70  46  42 SE10      30.19R
WICHITA MCCONL PTCLDY    70  43  37 SE9       30.20R HAZE
WINFIELD       PTCLDY    68  50  52 SE6       30.21R
$$

KSZ007>012-019>026-033>040-048>060-102>105-230200-
NORTHEAST KANSAS

CITY           SKY/WX    TMP DP  RH WIND       PRES   REMARKS
CONCORDIA      MOCLDY    61  53  75 SE5       30.17S
EMPORIA        PTCLDY    63  53  70 SE7       30.20S
LAWRENCE       PTCLDY    61  53  75 E3        30.22R
MANHATTAN      PTCLDY    66  51  58 SE3       30.18F
MARYSVILLE     MOCLDY    63  50  63 SE6       30.17F
OLATHE IND     PTCLDY    64  53  67 SE6       30.23S
OLATHE EXE     PTCLDY    65  53  65 SE5       30.22S
SALINA         PTCLDY    70  49  47 E7        30.18R
TOPEKA BILLARD PTCLDY    64  53  67 E3        30.21R
TOPEKA FORBES  PTCLDY    63  52  67 E6        30.21R
$$


USA.gov is the U.S. government's official web portal to all federal, state and local government web resources and services.